Battle Creek, MI

9:16 PM EST on February 27, 2017 (GMT -0500)
Kellogg

Weather History for KBTL - December, 2013

Change the Weather History Date:

Monday, December 30, 2013

  Actual Average Record
Temperature  
Mean Temperature 18 °F 24 °F  
Max Temperature 20 °F 32 °F 52 °F (2002)
Min Temperature 15 °F 17 °F 10 °F (1998)
Degree Days  
Heating Degree Days 47 41  
Month to date heating degree days 1163 1120  
Since 1 July heating degree days 2564 2558  
Cooling Degree Days 0 0  
Month to date cooling degree days 0 0  
Year to date cooling degree days 689 578  
Moisture  
Dew Point 9 °F    
Average Humidity 68    
Maximum Humidity 74    
Minimum Humidity 61    
Precipitation  
Precipitation T in 0.06 in 0.24 in (2011)
Month to date precipitation 1.11 1.93  
Year to date precipitation 34.91 33.09  
Sea Level Pressure  
Sea Level Pressure 30.18 in    
Wind  
Wind Speed 7 mph (West)    
Max Wind Speed 14 mph    
Max Gust Speed 18 mph    
Visibility 8 miles    
Events Snow    
T = Trace of Precipitation, MM = Missing Value Source: NWS Daily Summary

Daily Weather History Graph

Daily Weather History Graph

Search for Another Location

Airport or City:

Trip Planner

Search our weather history database for the weather conditions in past years. The results will help you decide how hot, cold, wet, or windy it might be!

Date:

Astronomy

Dec. 30, 2013 Rise Set
Actual Time 8:09 AM EST 5:17 PM EST
Civil Twilight 7:38 AM EST 5:49 PM EST
Nautical Twilight 7:02 AM EST 6:24 PM EST
Astronomical Twilight 6:28 AM EST 6:58 PM EST
Moon 5:57 AM EST (12/30) 3:51 PM EST (12/30)
Length of Visible Light 10h 11m
Length of Day
9h 07m
Waning Crescent, 5% of the Moon is Illuminated
Dec 30
Waning Crescent
Jan 1
New
Jan 7
First Quarter
Jan 15
Full
Jan 24
Last Quarter

Hourly Weather History & Observations

Time (EST) Temp. Windchill Dew Point Humidity Pressure Visibility Wind Dir Wind Speed Gust Speed Precip Events Conditions
12:53 AM 19.0 °F 7.5 °F 12.0 °F 74% 30.08 in 7.0 mi NW 10.4 mph - 0.00 in Snow Light Snow
1:53 AM 18.0 °F 6.9 °F 9.0 °F 68% 30.11 in 10.0 mi NNW 9.2 mph - 0.00 in   Overcast
2:53 AM 18.0 °F 7.7 °F 10.0 °F 71% 30.14 in 10.0 mi NNW 8.1 mph - 0.00 in   Overcast
3:53 AM 18.0 °F 7.7 °F 10.0 °F 71% 30.16 in 10.0 mi WNW 8.1 mph - N/A   Overcast
4:53 AM 17.1 °F 7.6 °F 9.0 °F 71% 30.17 in 10.0 mi NNW 6.9 mph - N/A   Overcast
5:53 AM 17.1 °F 7.6 °F 8.1 °F 68% 30.17 in 10.0 mi North 6.9 mph - N/A   Overcast
6:53 AM 17.1 °F 8.7 °F 9.0 °F 71% 30.20 in 10.0 mi NW 5.8 mph - N/A   Overcast
7:53 AM 17.1 °F 8.7 °F 9.0 °F 71% 30.24 in 10.0 mi WNW 5.8 mph - N/A   Overcast
8:53 AM 17.1 °F 11.7 °F 9.0 °F 71% 30.25 in 7.0 mi North 3.5 mph - 0.00 in Snow Light Snow
9:53 AM 17.1 °F 11.7 °F 10.9 °F 77% 30.27 in 10.0 mi NNE 3.5 mph - 0.00 in   Overcast
10:53 AM 18.0 °F - 10.9 °F 74% 30.28 in 6.0 mi Calm Calm - 0.00 in Snow Light Snow
11:53 AM 19.0 °F - 10.9 °F 71% 30.27 in 10.0 mi Calm Calm - 0.00 in   Overcast
12:06 PM 19.0 °F - 10.0 °F 68% 30.21 in 10.0 mi Calm Calm - N/A   Overcast
12:32 PM 19.0 °F 10.0 °F 10.0 °F 68% 30.20 in 10.0 mi WNW 6.9 mph - N/A   Overcast
12:53 PM 19.0 °F 9.0 °F 10.0 °F 68% 30.25 in 10.0 mi West 8.1 mph - N/A   Overcast
1:20 PM 19.0 °F 9.0 °F 10.0 °F 68% 30.18 in 10.0 mi SW 8.1 mph - N/A   Overcast
1:53 PM 19.9 °F 10.1 °F 9.0 °F 62% 30.22 in 9.0 mi West 8.1 mph - 0.00 in Snow Light Snow
2:26 PM 19.0 °F 10.0 °F 10.9 °F 71% 30.15 in 6.0 mi SSW 6.9 mph - 0.00 in Snow Light Snow
2:53 PM 19.0 °F 6.8 °F 10.9 °F 71% 30.20 in 10.0 mi SW 11.5 mph - 0.00 in   Overcast
3:01 PM 19.0 °F 7.5 °F 10.9 °F 71% 30.15 in 3.0 mi West 10.4 mph - 0.00 in Snow Light Snow
3:04 PM 19.0 °F 6.8 °F 12.0 °F 74% 30.15 in 1.8 mi West 11.5 mph - 0.00 in Snow Light Snow
3:23 PM 18.0 °F 11.1 °F 12.9 °F 81% 30.15 in 3.0 mi WNW 4.6 mph - 0.00 in Snow Light Snow
3:53 PM 19.0 °F 8.2 °F 10.0 °F 68% 30.20 in 10.0 mi West 9.2 mph - 0.00 in   Overcast
4:53 PM 19.0 °F 8.2 °F 8.1 °F 62% 30.21 in 10.0 mi SW 9.2 mph - N/A   Mostly Cloudy
5:53 PM 18.0 °F 8.7 °F 7.0 °F 62% 30.21 in 10.0 mi West 6.9 mph - N/A   Overcast
6:49 PM 17.6 °F 7.3 °F 8.6 °F 68% 30.15 in 10.0 mi WNW 8.1 mph - N/A   Overcast
6:53 PM 17.1 °F 5.8 °F 8.1 °F 68% 30.20 in 10.0 mi WNW 9.2 mph - N/A   Overcast
7:53 PM 16.0 °F 8.8 °F 7.0 °F 68% 30.20 in 10.0 mi West 4.6 mph - N/A   Mostly Cloudy
8:43 PM 16.0 °F 6.3 °F 7.0 °F 68% 30.14 in 10.0 mi WSW 6.9 mph - N/A   Overcast
8:53 PM 16.0 °F 6.3 °F 7.0 °F 68% 30.19 in 10.0 mi WSW 6.9 mph - N/A   Overcast
9:53 PM 16.0 °F 5.3 °F 8.1 °F 71% 30.17 in 10.0 mi SW 8.1 mph - N/A   Mostly Cloudy
10:22 PM 16.0 °F 5.3 °F 8.1 °F 71% 30.11 in 10.0 mi WSW 8.1 mph - N/A   Overcast
10:44 PM 16.0 °F 4.4 °F 8.1 °F 71% 30.10 in 10.0 mi WSW 9.2 mph - N/A   Overcast
10:53 PM 16.0 °F 4.4 °F 8.1 °F 71% 30.16 in 9.0 mi WSW 9.2 mph - N/A   Overcast
11:44 PM 15.1 °F 1.8 °F 9.0 °F 77% 30.10 in 2.5 mi SW 11.5 mph - 0.00 in Snow Light Snow
11:53 PM 16.0 °F 4.4 °F 10.0 °F 77% 30.16 in 1.5 mi SW 9.2 mph - 0.00 in Snow Light Snow